Year,Month,Day,Hour,Minute,Value (Times are PST for temperature in C)
2007,04,06,00,00,10.70
2007,04,06,00,01,10.70
2007,04,06,00,02,10.70
2007,04,06,00,03,10.70
2007,04,06,00,04,10.70
2007,04,06,00,05,10.70
2007,04,06,00,06,10.60
2007,04,06,00,07,10.60
2007,04,06,00,08,10.60
2007,04,06,00,09,10.60
2007,04,06,00,10,10.60
2007,04,06,00,11,10.60
2007,04,06,00,12,10.60
2007,04,06,00,13,10.60
2007,04,06,00,14,10.60
2007,04,06,00,15,10.60
2007,04,06,00,16,10.60
2007,04,06,00,17,10.60
2007,04,06,00,18,10.60
2007,04,06,00,19,10.60
2007,04,06,00,20,10.60
2007,04,06,00,21,10.60
2007,04,06,00,22,10.60
2007,04,06,00,23,10.60
2007,04,06,00,24,10.60
2007,04,06,00,25,10.60
2007,04,06,00,26,10.70
2007,04,06,00,27,10.70
2007,04,06,00,28,10.70
2007,04,06,00,29,10.70
2007,04,06,00,30,10.70
2007,04,06,00,31,10.70
2007,04,06,00,32,10.70
2007,04,06,00,33,10.70
2007,04,06,00,34,10.70
2007,04,06,00,35,10.70
2007,04,06,00,36,10.70
2007,04,06,00,37,10.70
2007,04,06,00,38,10.70
2007,04,06,00,39,10.70
2007,04,06,00,40,10.70
2007,04,06,00,41,10.70
2007,04,06,00,42,10.70
2007,04,06,00,43,10.70
2007,04,06,00,44,10.70
2007,04,06,00,45,10.70
2007,04,06,00,46,10.70
2007,04,06,00,47,10.70
2007,04,06,00,48,10.70
2007,04,06,00,49,10.70
2007,04,06,00,50,10.70
2007,04,06,00,51,10.70
2007,04,06,00,52,10.70
2007,04,06,00,53,10.70
2007,04,06,00,54,10.70
2007,04,06,00,55,10.80
2007,04,06,00,56,10.80
2007,04,06,00,57,10.80
2007,04,06,00,58,10.80
2007,04,06,00,59,10.80
2007,04,06,01,00,10.80
2007,04,06,01,01,10.80
2007,04,06,01,02,10.80
2007,04,06,01,03,10.70
2007,04,06,01,04,10.70
2007,04,06,01,05,10.70
2007,04,06,01,06,10.70
2007,04,06,01,07,10.70
2007,04,06,01,08,10.70
2007,04,06,01,09,10.70
2007,04,06,01,10,10.80
2007,04,06,01,11,10.80
2007,04,06,01,12,10.80
2007,04,06,01,13,10.80
2007,04,06,01,14,10.80
2007,04,06,01,15,10.80
2007,04,06,01,16,10.80
2007,04,06,01,17,10.80
2007,04,06,01,18,10.80
2007,04,06,01,19,10.80
2007,04,06,01,20,10.80
2007,04,06,01,21,10.80
2007,04,06,01,22,10.80
2007,04,06,01,23,10.80
2007,04,06,01,24,10.80
2007,04,06,01,25,10.80
2007,04,06,01,26,10.80
2007,04,06,01,27,10.80
2007,04,06,01,28,10.80
2007,04,06,01,29,10.80
2007,04,06,01,30,10.80
2007,04,06,01,31,10.80
2007,04,06,01,32,10.80
2007,04,06,01,33,10.80
2007,04,06,01,34,10.80
2007,04,06,01,35,10.80
2007,04,06,01,36,10.80
2007,04,06,01,37,10.80
2007,04,06,01,38,10.80
2007,04,06,01,39,10.80
2007,04,06,01,40,10.80
2007,04,06,01,41,10.80
2007,04,06,01,42,10.80
2007,04,06,01,43,10.80
2007,04,06,01,44,10.80
2007,04,06,01,45,10.80
2007,04,06,01,46,10.80
2007,04,06,01,47,10.80
2007,04,06,01,48,10.80
2007,04,06,01,49,10.80
2007,04,06,01,50,10.80
2007,04,06,01,51,10.80
2007,04,06,01,52,10.80
2007,04,06,01,53,10.80
2007,04,06,01,54,10.80
2007,04,06,01,55,10.80
2007,04,06,01,56,10.80
2007,04,06,01,57,10.70
2007,04,06,01,58,10.70
2007,04,06,01,59,10.70
2007,04,06,02,00,10.70
2007,04,06,02,01,10.70
2007,04,06,02,02,10.70
2007,04,06,02,03,10.70
2007,04,06,02,04,10.70
2007,04,06,02,05,10.70
2007,04,06,02,06,10.70
2007,04,06,02,07,10.70
2007,04,06,02,08,10.70
2007,04,06,02,09,10.70
2007,04,06,02,10,10.70
2007,04,06,02,11,10.60
2007,04,06,02,12,10.60
2007,04,06,02,13,10.60
2007,04,06,02,14,10.60
2007,04,06,02,15,10.60
2007,04,06,02,16,10.60
2007,04,06,02,17,10.60
2007,04,06,02,18,10.50
2007,04,06,02,19,10.50
2007,04,06,02,20,10.50
2007,04,06,02,21,10.50
2007,04,06,02,22,10.50
2007,04,06,02,23,10.50
2007,04,06,02,24,10.50
2007,04,06,02,25,10.40
2007,04,06,02,26,10.40
2007,04,06,02,27,10.40
2007,04,06,02,28,10.40
2007,04,06,02,29,10.40
2007,04,06,02,30,10.40
2007,04,06,02,31,10.40
2007,04,06,02,32,10.40
2007,04,06,02,33,10.40
2007,04,06,02,34,10.40
2007,04,06,02,35,10.40
2007,04,06,02,36,10.40
2007,04,06,02,37,10.30
2007,04,06,02,38,10.30
2007,04,06,02,39,10.30
2007,04,06,02,40,10.30
2007,04,06,02,41,10.30
2007,04,06,02,42,10.30
2007,04,06,02,43,10.30
2007,04,06,02,44,10.30
2007,04,06,02,45,10.30
2007,04,06,02,46,10.30
2007,04,06,02,47,10.30
2007,04,06,02,48,10.30
2007,04,06,02,49,10.30
2007,04,06,02,50,10.30
2007,04,06,02,51,10.20
2007,04,06,02,52,10.20
2007,04,06,02,53,10.20
2007,04,06,02,54,10.20
2007,04,06,02,55,10.20
2007,04,06,02,56,10.20
2007,04,06,02,57,10.20
2007,04,06,02,58,10.20
2007,04,06,02,59,10.20
2007,04,06,03,00,10.10
2007,04,06,03,01,10.10
2007,04,06,03,02,10.10
2007,04,06,03,03,10.10
2007,04,06,03,04,10.10
2007,04,06,03,05,10.10
2007,04,06,03,06,10.10
2007,04,06,03,07,10.10
2007,04,06,03,08,10.10
2007,04,06,03,09,10.10
2007,04,06,03,10,10.10
2007,04,06,03,11,10.00
2007,04,06,03,12,10.00
2007,04,06,03,13,10.00
2007,04,06,03,14,10.00
2007,04,06,03,15,10.00
2007,04,06,03,16,10.00
2007,04,06,03,17,9.90
2007,04,06,03,18,9.90
2007,04,06,03,19,9.90
2007,04,06,03,20,9.90
2007,04,06,03,21,9.90
2007,04,06,03,22,9.90
2007,04,06,03,23,9.90
2007,04,06,03,24,9.90
2007,04,06,03,25,9.90
2007,04,06,03,26,9.90
2007,04,06,03,27,9.90
2007,04,06,03,28,9.90
2007,04,06,03,29,9.90
2007,04,06,03,30,9.90
2007,04,06,03,31,9.90
2007,04,06,03,32,9.90
2007,04,06,03,33,9.80
2007,04,06,03,34,9.80
2007,04,06,03,35,9.80
2007,04,06,03,36,9.80
2007,04,06,03,37,9.80
2007,04,06,03,38,9.80
2007,04,06,03,39,9.80
2007,04,06,03,40,9.80
2007,04,06,03,41,9.80
2007,04,06,03,42,9.80
2007,04,06,03,43,9.80
2007,04,06,03,44,9.70
2007,04,06,03,45,9.70
2007,04,06,03,46,9.70
2007,04,06,03,47,9.70
2007,04,06,03,48,9.70
2007,04,06,03,49,9.70
2007,04,06,03,50,9.70
2007,04,06,03,51,9.70
2007,04,06,03,52,9.70
2007,04,06,03,53,9.70
2007,04,06,03,54,9.70
2007,04,06,03,55,9.70
2007,04,06,03,56,9.70
2007,04,06,03,57,9.70
2007,04,06,03,58,9.70
2007,04,06,03,59,9.70
2007,04,06,04,00,9.70
2007,04,06,04,01,9.70
2007,04,06,04,02,9.60
2007,04,06,04,03,9.60
2007,04,06,04,04,9.60
2007,04,06,04,05,9.60
2007,04,06,04,06,9.50
2007,04,06,04,07,9.50
2007,04,06,04,08,9.40
2007,04,06,04,09,9.40
2007,04,06,04,10,9.40
2007,04,06,04,11,9.40
2007,04,06,04,12,9.30
2007,04,06,04,13,9.30
2007,04,06,04,14,9.30
2007,04,06,04,15,9.30
2007,04,06,04,16,9.30
2007,04,06,04,17,9.30
2007,04,06,04,18,9.30
2007,04,06,04,19,9.30
2007,04,06,04,20,9.30
2007,04,06,04,21,9.20
2007,04,06,04,22,9.20
2007,04,06,04,23,9.20
2007,04,06,04,24,9.20
2007,04,06,04,25,9.20
2007,04,06,04,26,9.10
2007,04,06,04,27,9.10
2007,04,06,04,28,9.10
2007,04,06,04,29,9.10
2007,04,06,04,30,9.10
2007,04,06,04,31,9.00
2007,04,06,04,32,9.00
2007,04,06,04,33,9.00
2007,04,06,04,34,9.00
2007,04,06,04,35,9.00
2007,04,06,04,36,8.90
2007,04,06,04,37,8.90
2007,04,06,04,38,8.90
2007,04,06,04,39,8.90
2007,04,06,04,40,8.90
2007,04,06,04,41,8.90
2007,04,06,04,42,8.80
2007,04,06,04,43,8.80
2007,04,06,04,44,8.80
2007,04,06,04,45,8.80
2007,04,06,04,46,8.80
2007,04,06,04,47,8.80
2007,04,06,04,48,8.80
2007,04,06,04,49,8.70
2007,04,06,04,50,8.70
2007,04,06,04,51,8.70
2007,04,06,04,52,8.70
2007,04,06,04,53,8.70
2007,04,06,04,54,8.60
2007,04,06,04,55,8.60
2007,04,06,04,56,8.60
2007,04,06,04,57,8.60
2007,04,06,04,58,8.60
2007,04,06,04,59,8.50
2007,04,06,05,00,8.50
2007,04,06,05,01,8.50
2007,04,06,05,02,8.50
2007,04,06,05,03,8.50
2007,04,06,05,04,8.50
2007,04,06,05,05,8.50
2007,04,06,05,06,8.40
2007,04,06,05,07,8.40
2007,04,06,05,08,8.30
2007,04,06,05,09,8.30
2007,04,06,05,10,8.30
2007,04,06,05,11,8.30
2007,04,06,05,12,8.30
2007,04,06,05,13,8.30
2007,04,06,05,14,8.30
2007,04,06,05,15,8.30
2007,04,06,05,16,8.30
2007,04,06,05,17,8.30
2007,04,06,05,18,8.20
2007,04,06,05,19,8.20
2007,04,06,05,20,8.20
2007,04,06,05,21,8.20
2007,04,06,05,22,8.20
2007,04,06,05,23,8.20
2007,04,06,05,24,8.20
2007,04,06,05,25,8.20
2007,04,06,05,26,8.20
2007,04,06,05,27,8.20
2007,04,06,05,28,8.20
2007,04,06,05,29,8.20
2007,04,06,05,30,8.10
2007,04,06,05,31,8.10
2007,04,06,05,32,8.10
2007,04,06,05,33,8.10
2007,04,06,05,34,8.10
2007,04,06,05,35,8.00
2007,04,06,05,36,8.00
2007,04,06,05,37,8.00
2007,04,06,05,38,8.00
2007,04,06,05,39,8.00
2007,04,06,05,40,8.00
2007,04,06,05,41,8.00
2007,04,06,05,42,8.00
2007,04,06,05,43,8.00
2007,04,06,05,44,8.00
2007,04,06,05,45,8.00
2007,04,06,05,46,8.00
2007,04,06,05,47,8.00
2007,04,06,05,48,8.00
2007,04,06,05,49,8.00
2007,04,06,05,50,7.90
2007,04,06,05,51,7.90
2007,04,06,05,52,7.90
2007,04,06,05,53,7.90
2007,04,06,05,54,7.90
2007,04,06,05,55,7.90
2007,04,06,05,56,7.90
2007,04,06,05,57,7.90
2007,04,06,05,58,7.90
2007,04,06,05,59,7.90
2007,04,06,06,00,7.90
2007,04,06,06,01,7.90
2007,04,06,06,02,7.90
2007,04,06,06,03,7.90
2007,04,06,06,04,7.90
2007,04,06,06,05,7.90
2007,04,06,06,06,7.90
2007,04,06,06,07,7.90
2007,04,06,06,08,7.90
2007,04,06,06,09,7.90
2007,04,06,06,10,7.90
2007,04,06,06,11,7.90
2007,04,06,06,12,7.90
2007,04,06,06,13,7.90
2007,04,06,06,14,7.90
2007,04,06,06,15,7.90
2007,04,06,06,16,7.90
2007,04,06,06,17,7.90
2007,04,06,06,18,8.00
2007,04,06,06,19,8.00
2007,04,06,06,20,8.00
2007,04,06,06,21,8.00
2007,04,06,06,22,8.00
2007,04,06,06,23,8.10
2007,04,06,06,24,8.10
2007,04,06,06,25,8.10
2007,04,06,06,26,8.10
2007,04,06,06,27,8.10
2007,04,06,06,28,8.10
2007,04,06,06,29,8.10
2007,04,06,06,30,8.10
2007,04,06,06,31,8.10
2007,04,06,06,32,8.10
2007,04,06,06,33,8.10
2007,04,06,06,34,8.10
2007,04,06,06,35,8.20
2007,04,06,06,36,8.20
2007,04,06,06,37,8.10
2007,04,06,06,38,8.10
2007,04,06,06,39,8.10
2007,04,06,06,40,8.10
2007,04,06,06,41,8.20
2007,04,06,06,42,8.20
2007,04,06,06,43,8.20
2007,04,06,06,44,8.20
2007,04,06,06,45,8.20
2007,04,06,06,46,8.20
2007,04,06,06,47,8.20
2007,04,06,06,48,8.20
2007,04,06,06,49,8.20
2007,04,06,06,50,8.20
2007,04,06,06,51,8.20
2007,04,06,06,52,8.30
2007,04,06,06,53,8.30
2007,04,06,06,54,8.30
2007,04,06,06,55,8.30
2007,04,06,06,56,8.30
2007,04,06,06,57,8.30
2007,04,06,06,58,8.30
2007,04,06,06,59,8.30
2007,04,06,07,00,8.30
2007,04,06,07,01,8.30
2007,04,06,07,02,8.30
2007,04,06,07,03,8.30
2007,04,06,07,04,8.30
2007,04,06,07,05,8.30
2007,04,06,07,06,8.30
2007,04,06,07,07,8.30
2007,04,06,07,08,8.30
2007,04,06,07,09,8.30
2007,04,06,07,10,8.40
2007,04,06,07,11,8.40
2007,04,06,07,12,8.40
2007,04,06,07,13,8.40
2007,04,06,07,14,8.40
2007,04,06,07,15,8.50
2007,04,06,07,16,8.50
2007,04,06,07,17,8.50
2007,04,06,07,18,8.50
2007,04,06,07,19,8.50
2007,04,06,07,20,8.60
2007,04,06,07,21,8.60
2007,04,06,07,22,8.60
2007,04,06,07,23,8.70
2007,04,06,07,24,8.70
2007,04,06,07,25,8.70
2007,04,06,07,26,8.70
2007,04,06,07,27,8.70
2007,04,06,07,28,8.70
2007,04,06,07,29,8.70
2007,04,06,07,30,8.80
2007,04,06,07,31,8.80
2007,04,06,07,32,8.80
2007,04,06,07,33,8.90
2007,04,06,07,34,8.90
2007,04,06,07,35,8.90
2007,04,06,07,36,9.00
2007,04,06,07,37,9.00
2007,04,06,07,38,9.00
2007,04,06,07,39,9.10
2007,04,06,07,40,9.10
2007,04,06,07,41,9.10
2007,04,06,07,42,9.20
2007,04,06,07,43,9.20
2007,04,06,07,44,9.20
2007,04,06,07,45,9.30
2007,04,06,07,46,9.30
2007,04,06,07,47,9.30
2007,04,06,07,48,9.30
2007,04,06,07,49,9.40
2007,04,06,07,50,9.40
2007,04,06,07,51,9.40
2007,04,06,07,52,9.40
2007,04,06,07,53,9.50
2007,04,06,07,54,9.50
2007,04,06,07,55,9.50
2007,04,06,07,56,9.60
2007,04,06,07,57,9.60
2007,04,06,07,58,9.60
2007,04,06,07,59,9.60
2007,04,06,08,00,9.60
2007,04,06,08,01,9.70
2007,04,06,08,02,9.70
2007,04,06,08,03,9.70
2007,04,06,08,04,9.70
2007,04,06,08,05,9.80
2007,04,06,08,06,9.80
2007,04,06,08,07,9.80
2007,04,06,08,08,9.90
2007,04,06,08,09,9.90
2007,04,06,08,10,9.90
2007,04,06,08,11,10.00
2007,04,06,08,12,10.00
2007,04,06,08,13,10.00
2007,04,06,08,14,10.10
2007,04,06,08,15,10.10
2007,04,06,08,16,10.10
2007,04,06,08,17,10.10
2007,04,06,08,18,10.10
2007,04,06,08,19,10.10
2007,04,06,08,20,10.10
2007,04,06,08,21,10.20
2007,04,06,08,22,10.10
2007,04,06,08,23,10.10
2007,04,06,08,24,10.10
2007,04,06,08,25,10.10
2007,04,06,08,26,10.10
2007,04,06,08,27,10.10
2007,04,06,08,28,10.10
2007,04,06,08,29,10.10
2007,04,06,08,30,10.10
2007,04,06,08,31,10.10
2007,04,06,08,32,10.10
2007,04,06,08,33,10.10
2007,04,06,08,34,10.10
2007,04,06,08,35,10.10
2007,04,06,08,36,10.10
2007,04,06,08,37,10.20
2007,04,06,08,38,10.20
2007,04,06,08,39,10.30
2007,04,06,08,40,10.30
2007,04,06,08,41,10.40
2007,04,06,08,42,10.40
2007,04,06,08,43,10.50
2007,04,06,08,44,10.60
2007,04,06,08,45,10.70
2007,04,06,08,46,10.70
2007,04,06,08,47,10.70
2007,04,06,08,48,10.90
2007,04,06,08,49,10.90
2007,04,06,08,50,11.00
2007,04,06,08,51,11.10
2007,04,06,08,52,11.10
2007,04,06,08,53,11.20
2007,04,06,08,54,11.20
2007,04,06,08,55,11.10
2007,04,06,08,56,11.10
2007,04,06,08,57,11.10
2007,04,06,08,58,11.10
2007,04,06,08,59,11.10
2007,04,06,09,00,11.10
2007,04,06,09,01,11.10
2007,04,06,09,02,11.10
2007,04,06,09,03,11.10
2007,04,06,09,04,11.10
2007,04,06,09,05,11.10
2007,04,06,09,06,11.10
2007,04,06,09,07,11.20
2007,04,06,09,08,11.20
2007,04,06,09,09,11.20
2007,04,06,09,10,11.20
2007,04,06,09,11,11.20
2007,04,06,09,12,11.20
2007,04,06,09,13,11.30
2007,04,06,09,14,11.30
2007,04,06,09,15,11.40
2007,04,06,09,16,11.50
2007,04,06,09,17,11.50
2007,04,06,09,18,11.60
2007,04,06,09,19,11.60
2007,04,06,09,20,11.60
2007,04,06,09,21,11.60
2007,04,06,09,22,11.70
2007,04,06,09,23,11.70
2007,04,06,09,24,11.70
2007,04,06,09,25,11.70
2007,04,06,09,26,11.70
2007,04,06,09,27,11.80
2007,04,06,09,28,11.80
2007,04,06,09,29,11.90
2007,04,06,09,30,11.90
2007,04,06,09,31,12.00
2007,04,06,09,32,12.00
2007,04,06,09,33,12.10
2007,04,06,09,34,12.10
2007,04,06,09,35,12.10
2007,04,06,09,36,12.10
2007,04,06,09,37,12.20
2007,04,06,09,38,12.20
2007,04,06,09,39,12.20
2007,04,06,09,40,12.20
2007,04,06,09,41,12.20
2007,04,06,09,42,12.30
2007,04,06,09,43,12.30
2007,04,06,09,44,12.30
2007,04,06,09,45,12.30
2007,04,06,09,46,12.30
2007,04,06,09,47,12.40
2007,04,06,09,48,12.40
2007,04,06,09,49,12.40
2007,04,06,09,50,12.40
2007,04,06,09,51,12.40
2007,04,06,09,52,12.50
2007,04,06,09,53,12.50
2007,04,06,09,54,12.50
2007,04,06,09,55,12.60
2007,04,06,09,56,12.60
2007,04,06,09,57,12.70
2007,04,06,09,58,12.70
2007,04,06,09,59,12.80
2007,04,06,10,00,12.90
2007,04,06,10,01,12.90
2007,04,06,10,02,13.00
2007,04,06,10,03,13.00
2007,04,06,10,04,13.10
2007,04,06,10,05,13.10
2007,04,06,10,06,13.10
2007,04,06,10,07,13.20
2007,04,06,10,08,13.20
2007,04,06,10,09,13.20
2007,04,06,10,10,13.20
2007,04,06,10,11,13.20
2007,04,06,10,12,13.20
2007,04,06,10,13,13.10
2007,04,06,10,14,13.10
2007,04,06,10,15,13.00
2007,04,06,10,16,12.90
2007,04,06,10,17,12.90
2007,04,06,10,18,12.90
2007,04,06,10,19,12.80
2007,04,06,10,20,12.80
2007,04,06,10,21,12.70
2007,04,06,10,22,12.70
2007,04,06,10,23,12.70
2007,04,06,10,24,12.70
2007,04,06,10,25,12.70
2007,04,06,10,26,12.70
2007,04,06,10,27,12.70
2007,04,06,10,28,12.70
2007,04,06,10,29,12.80
2007,04,06,10,30,12.80
2007,04,06,10,31,12.80
2007,04,06,10,32,12.90
2007,04,06,10,33,12.90
2007,04,06,10,34,12.90
2007,04,06,10,35,12.90
2007,04,06,10,36,12.80
2007,04,06,10,37,12.80
2007,04,06,10,38,12.90
2007,04,06,10,39,13.00
2007,04,06,10,40,13.00
2007,04,06,10,41,13.00
2007,04,06,10,42,13.10
2007,04,06,10,43,13.20
2007,04,06,10,44,13.20
2007,04,06,10,45,13.20
2007,04,06,10,46,13.20
2007,04,06,10,47,13.30
2007,04,06,10,48,13.30
2007,04,06,10,49,13.30
2007,04,06,10,50,13.20
2007,04,06,10,51,13.20
2007,04,06,10,52,13.30
2007,04,06,10,53,13.30
2007,04,06,10,54,13.30
2007,04,06,10,55,13.30
2007,04,06,10,56,13.30
2007,04,06,10,57,13.30
2007,04,06,10,58,13.40
2007,04,06,10,59,13.50
2007,04,06,11,00,13.50
2007,04,06,11,01,13.60
2007,04,06,11,02,13.60
2007,04,06,11,03,13.70
2007,04,06,11,04,13.70
2007,04,06,11,05,13.80
2007,04,06,11,06,13.80
2007,04,06,11,07,13.90
2007,04,06,11,08,14.00
2007,04,06,11,09,14.10
2007,04,06,11,10,14.20
2007,04,06,11,11,14.30
2007,04,06,11,12,14.30
2007,04,06,11,13,14.40
2007,04,06,11,14,14.40
2007,04,06,11,15,14.50
2007,04,06,11,16,14.50
2007,04,06,11,17,14.60
2007,04,06,11,18,14.60
2007,04,06,11,19,14.70
2007,04,06,11,20,14.70
2007,04,06,11,21,14.70
2007,04,06,11,22,14.60
2007,04,06,11,23,14.60
2007,04,06,11,24,14.70
2007,04,06,11,25,14.70
2007,04,06,11,26,14.70
2007,04,06,11,27,14.70
2007,04,06,11,28,14.70
2007,04,06,11,29,14.70
2007,04,06,11,30,14.70
2007,04,06,11,31,14.70
2007,04,06,11,32,14.70
2007,04,06,11,33,14.70
2007,04,06,11,34,14.80
2007,04,06,11,35,14.80
2007,04,06,11,36,14.80
2007,04,06,11,37,14.80
2007,04,06,11,38,14.80
2007,04,06,11,39,14.80
2007,04,06,11,40,14.80
2007,04,06,11,41,14.80
2007,04,06,11,42,14.80
2007,04,06,11,43,14.80
2007,04,06,11,44,14.80
2007,04,06,11,45,14.80
2007,04,06,11,46,14.80
2007,04,06,11,47,14.80
2007,04,06,11,48,14.90
2007,04,06,11,49,14.90
2007,04,06,11,50,14.90
2007,04,06,11,51,14.90
2007,04,06,11,52,14.90
2007,04,06,11,53,15.00
2007,04,06,11,54,15.00
2007,04,06,11,55,15.00
2007,04,06,11,56,15.00
2007,04,06,11,57,15.00
2007,04,06,11,58,15.00
2007,04,06,11,59,15.00
2007,04,06,12,00,15.10
2007,04,06,12,01,15.20
2007,04,06,12,02,15.20
2007,04,06,12,03,15.20
2007,04,06,12,04,15.20
2007,04,06,12,05,15.30
2007,04,06,12,06,15.30
2007,04,06,12,07,15.30
2007,04,06,12,08,15.30
2007,04,06,12,09,15.30
2007,04,06,12,10,15.30
2007,04,06,12,11,15.30
2007,04,06,12,12,15.30
2007,04,06,12,13,15.30
2007,04,06,12,14,15.40
2007,04,06,12,15,15.40
2007,04,06,12,16,15.40
2007,04,06,12,17,15.40
2007,04,06,12,18,15.50
2007,04,06,12,19,15.50
2007,04,06,12,20,15.50
2007,04,06,12,21,15.50
2007,04,06,12,22,15.50
2007,04,06,12,23,15.50
2007,04,06,12,24,15.50
2007,04,06,12,25,15.50
2007,04,06,12,26,15.40
2007,04,06,12,27,15.40
2007,04,06,12,28,15.40
2007,04,06,12,29,15.40
2007,04,06,12,30,15.50
2007,04,06,12,31,15.50
2007,04,06,12,32,15.60
2007,04,06,12,33,15.60
2007,04,06,12,34,15.60
2007,04,06,12,35,15.60
2007,04,06,12,36,15.60
2007,04,06,12,37,15.60
2007,04,06,12,38,15.60
2007,04,06,12,39,15.60
2007,04,06,12,40,15.70
2007,04,06,12,41,15.70
2007,04,06,12,42,15.70
2007,04,06,12,43,15.80
2007,04,06,12,44,15.80
2007,04,06,12,45,15.80
2007,04,06,12,46,15.80
2007,04,06,12,47,15.80
2007,04,06,12,48,15.80
2007,04,06,12,49,15.90
2007,04,06,12,50,15.90
2007,04,06,12,51,15.90
2007,04,06,12,52,15.80
2007,04,06,12,53,15.80
2007,04,06,12,54,15.80
2007,04,06,12,55,15.90
2007,04,06,12,56,15.90
2007,04,06,12,57,15.90
2007,04,06,12,58,15.90
2007,04,06,12,59,15.90
2007,04,06,13,00,15.90
2007,04,06,13,01,16.00
2007,04,06,13,02,16.00
2007,04,06,13,03,16.00
2007,04,06,13,04,16.10
2007,04,06,13,05,16.10
2007,04,06,13,06,16.10
2007,04,06,13,07,16.10
2007,04,06,13,08,16.20
2007,04,06,13,09,16.20
2007,04,06,13,10,16.30
2007,04,06,13,11,16.30
2007,04,06,13,12,16.40
2007,04,06,13,13,16.40
2007,04,06,13,14,16.40
2007,04,06,13,15,16.40
2007,04,06,13,16,16.50
2007,04,06,13,17,16.50
2007,04,06,13,18,16.50
2007,04,06,13,19,16.50
2007,04,06,13,20,16.60
2007,04,06,13,21,16.60
2007,04,06,13,22,16.60
2007,04,06,13,23,16.70
2007,04,06,13,24,16.70
2007,04,06,13,25,16.70
2007,04,06,13,26,16.70
2007,04,06,13,27,16.70
2007,04,06,13,28,16.70
2007,04,06,13,29,16.80
2007,04,06,13,30,16.80
2007,04,06,13,31,16.90
2007,04,06,13,32,16.90
2007,04,06,13,33,17.00
2007,04,06,13,34,17.00
2007,04,06,13,35,17.00
2007,04,06,13,36,17.10
2007,04,06,13,37,17.10
2007,04,06,13,38,17.20
2007,04,06,13,39,17.20
2007,04,06,13,40,17.20
2007,04,06,13,41,17.30
2007,04,06,13,42,17.30
2007,04,06,13,43,17.30
2007,04,06,13,44,17.30
2007,04,06,13,45,17.30
2007,04,06,13,46,17.40
2007,04,06,13,47,17.40
2007,04,06,13,48,17.40
2007,04,06,13,49,17.40
2007,04,06,13,50,17.50
2007,04,06,13,51,17.50
2007,04,06,13,52,17.60
2007,04,06,13,53,17.60
2007,04,06,13,54,17.60
2007,04,06,13,55,17.60
2007,04,06,13,56,17.50
2007,04,06,13,57,17.50
2007,04,06,13,58,17.60
2007,04,06,13,59,17.60
2007,04,06,14,00,17.70
2007,04,06,14,01,17.70
2007,04,06,14,02,17.70
2007,04,06,14,03,17.70
2007,04,06,14,04,17.70
2007,04,06,14,05,17.70
2007,04,06,14,06,17.70
2007,04,06,14,07,17.70
2007,04,06,14,08,17.70
2007,04,06,14,09,17.70
2007,04,06,14,10,17.80
2007,04,06,14,11,17.80
2007,04,06,14,12,17.80
2007,04,06,14,13,17.90
2007,04,06,14,14,17.90
2007,04,06,14,15,18.00
2007,04,06,14,16,18.00
2007,04,06,14,17,18.00
2007,04,06,14,18,18.00
2007,04,06,14,19,18.10
2007,04,06,14,20,18.10
2007,04,06,14,21,18.10
2007,04,06,14,22,18.10
2007,04,06,14,23,18.20
2007,04,06,14,24,18.20
2007,04,06,14,25,18.20
2007,04,06,14,26,18.20
2007,04,06,14,27,18.20
2007,04,06,14,28,18.20
2007,04,06,14,29,18.10
2007,04,06,14,30,18.10
2007,04,06,14,31,18.10
2007,04,06,14,32,18.10
2007,04,06,14,33,18.20
2007,04,06,14,34,18.20
2007,04,06,14,35,18.20
2007,04,06,14,36,18.30
2007,04,06,14,37,18.30
2007,04,06,14,38,18.30
2007,04,06,14,39,18.30
2007,04,06,14,40,18.30
2007,04,06,14,41,18.30
2007,04,06,14,42,18.30
2007,04,06,14,43,18.30
2007,04,06,14,44,18.30
2007,04,06,14,45,18.30
2007,04,06,14,46,18.30
2007,04,06,14,47,18.30
2007,04,06,14,48,18.40
2007,04,06,14,49,18.40
2007,04,06,14,50,18.40
2007,04,06,14,51,18.40
2007,04,06,14,52,18.40
2007,04,06,14,53,18.50
2007,04,06,14,54,18.50
2007,04,06,14,55,18.60
2007,04,06,14,56,18.60
2007,04,06,14,57,18.60
2007,04,06,14,58,18.60
2007,04,06,14,59,18.70
2007,04,06,15,00,18.70
2007,04,06,15,01,18.70
2007,04,06,15,02,18.70
2007,04,06,15,03,18.70
2007,04,06,15,04,18.70
2007,04,06,15,05,18.70
2007,04,06,15,06,18.70
2007,04,06,15,07,18.70
2007,04,06,15,08,18.70
2007,04,06,15,09,18.70
2007,04,06,15,10,18.70
2007,04,06,15,11,18.70
2007,04,06,15,12,18.70
2007,04,06,15,13,18.70
2007,04,06,15,14,18.70
2007,04,06,15,15,18.70
2007,04,06,15,16,18.70
2007,04,06,15,17,18.70
2007,04,06,15,18,18.70
2007,04,06,15,19,18.80
2007,04,06,15,20,18.80
2007,04,06,15,21,18.80
2007,04,06,15,22,18.80
2007,04,06,15,23,18.80
2007,04,06,15,24,18.80
2007,04,06,15,25,18.80
2007,04,06,15,26,18.80
2007,04,06,15,27,18.80
2007,04,06,15,28,18.80
2007,04,06,15,29,18.90
2007,04,06,15,30,18.90
2007,04,06,15,31,18.90
2007,04,06,15,32,18.90
2007,04,06,15,33,18.90
2007,04,06,15,34,18.90
2007,04,06,15,35,18.90
2007,04,06,15,36,18.90
2007,04,06,15,37,18.90
2007,04,06,15,38,18.80
2007,04,06,15,39,18.80
2007,04,06,15,40,18.80
2007,04,06,15,41,18.80
2007,04,06,15,42,18.80
2007,04,06,15,43,18.80
2007,04,06,15,44,18.80
2007,04,06,15,45,18.90
2007,04,06,15,46,18.90
2007,04,06,15,47,18.90
2007,04,06,15,48,18.90
2007,04,06,15,49,18.90
2007,04,06,15,50,18.90
2007,04,06,15,51,18.90
2007,04,06,15,52,19.00
2007,04,06,15,53,19.00
2007,04,06,15,54,19.00
2007,04,06,15,55,19.00
2007,04,06,15,56,19.00
2007,04,06,15,57,19.00
2007,04,06,15,58,19.00
2007,04,06,15,59,19.10
2007,04,06,16,00,19.10
2007,04,06,16,01,19.10
2007,04,06,16,02,19.10
2007,04,06,16,03,19.10
2007,04,06,16,04,19.10
2007,04,06,16,05,19.10
2007,04,06,16,06,19.10
2007,04,06,16,07,19.00
2007,04,06,16,08,19.00
2007,04,06,16,09,19.00
2007,04,06,16,10,19.00
2007,04,06,16,11,19.00
2007,04,06,16,12,19.10
2007,04,06,16,13,19.10
2007,04,06,16,14,19.00
2007,04,06,16,15,19.00
2007,04,06,16,16,19.00
2007,04,06,16,17,19.00
2007,04,06,16,18,18.90
2007,04,06,16,19,19.00
2007,04,06,16,20,19.00
2007,04,06,16,21,19.00
2007,04,06,16,22,18.90
2007,04,06,16,23,18.90
2007,04,06,16,24,19.00
2007,04,06,16,25,19.00
2007,04,06,16,26,19.10
2007,04,06,16,27,19.10
2007,04,06,16,28,19.20
2007,04,06,16,29,19.20
2007,04,06,16,30,19.20
2007,04,06,16,31,19.20
2007,04,06,16,32,19.30
2007,04,06,16,33,19.30
2007,04,06,16,34,19.30
2007,04,06,16,35,19.30
2007,04,06,16,36,19.30
2007,04,06,16,37,19.30
2007,04,06,16,38,19.20
2007,04,06,16,39,19.20
2007,04,06,16,40,19.20
2007,04,06,16,41,19.20
2007,04,06,16,42,19.10
2007,04,06,16,43,19.10
2007,04,06,16,44,19.10
2007,04,06,16,45,19.10
2007,04,06,16,46,19.10
2007,04,06,16,47,19.20
2007,04,06,16,48,19.20
2007,04,06,16,49,19.20
2007,04,06,16,50,19.30
2007,04,06,16,51,19.30
2007,04,06,16,52,19.40
2007,04,06,16,53,19.40
2007,04,06,16,54,19.50
2007,04,06,16,55,19.60
2007,04,06,16,56,19.70
2007,04,06,16,57,19.70
2007,04,06,16,58,19.80
2007,04,06,16,59,19.80
2007,04,06,17,00,19.90
2007,04,06,17,01,19.80
2007,04,06,17,02,19.80
2007,04,06,17,03,19.80
2007,04,06,17,04,19.90
2007,04,06,17,05,19.90
2007,04,06,17,06,19.90
2007,04,06,17,07,19.90
2007,04,06,17,08,19.90
2007,04,06,17,09,19.80
2007,04,06,17,10,19.80
2007,04,06,17,11,19.80
2007,04,06,17,12,19.80
2007,04,06,17,13,19.90
2007,04,06,17,14,19.90
2007,04,06,17,15,19.90
2007,04,06,17,16,19.90
2007,04,06,17,17,19.90
2007,04,06,17,18,19.90
2007,04,06,17,19,19.90
2007,04,06,17,20,19.90
2007,04,06,17,21,19.90
2007,04,06,17,22,19.90
2007,04,06,17,23,19.90
2007,04,06,17,24,19.90
2007,04,06,17,25,19.90
2007,04,06,17,26,20.00
2007,04,06,17,27,20.00
2007,04,06,17,28,20.00
2007,04,06,17,29,20.00
2007,04,06,17,30,20.00
2007,04,06,17,31,19.90
2007,04,06,17,32,19.90